GFSGL_sfc_wetblb_081.txt.gz
Wetbulb
70.26 71.20 72.46 72.69 72.40 71.15 70.89 70.36 69.16 69.12 68.26 67.54 67.64 67.88 67.89 67.40 67.40 66.43 67.39 67.65 66.98 66.36 67.09 67.10 67.03 67.83 67.89 68.09 68.77 68.13 67.09 64.50 60.28 60.43 61.82 62.25 62.61 63.18 63.21 63.10 62.78 62.95 63.96
69.15 71.81 71.99 72.32 71.62 69.95 69.45 70.02 70.14 69.30 68.82 67.97 67.98 67.75 67.65 67.92 68.12 65.95 66.16 67.80 66.47 66.56 66.60 66.60 66.76 69.34 67.28 68.16 67.77 66.92 66.91 63.89 61.31 58.81 59.96 59.84 61.03 61.89 61.88 61.70 61.99 62.29 62.53
71.57 71.50 71.50 70.55 70.25 70.14 70.06 70.19 70.08 69.41 69.41 69.22 67.52 64.66 63.32 64.69 65.44 66.14 66.97 66.66 66.15 65.50 65.84 65.92 65.99 67.46 66.69 66.85 66.71 66.01 64.88 63.14 62.15 60.28 58.58 58.70 59.46 60.92 61.14 61.60 60.97 59.81 61.63
71.52 71.26 70.68 69.07 70.27 70.25 69.71 69.91 70.03 69.60 68.38 66.00 65.91 64.29 63.68 64.89 66.11 66.21 66.87 65.96 65.50 65.72 65.42 65.01 64.25 65.41 65.69 66.29 66.33 64.82 64.01 61.46 60.13 59.54 58.19 57.83 58.37 59.62 60.29 60.14 59.36 58.77 58.45
71.48 70.45 69.92 69.42 70.21 70.16 69.70 69.42 69.26 68.72 68.46 66.95 66.69 65.70 64.69 64.85 65.76 64.46 66.37 66.07 65.12 64.20 64.94 63.25 61.61 63.13 64.83 65.02 66.06 64.37 61.95 60.51 59.33 58.53 57.69 57.15 56.97 57.75 58.19 59.47 58.78 59.16 57.86
70.75 69.83 70.33 69.65 69.67 69.38 69.07 68.72 68.61 67.95 67.86 67.10 66.39 65.85 64.89 66.71 61.67 63.42 64.71 63.93 63.84 64.24 63.57 61.77 62.32 63.45 62.91 63.31 63.83 65.20 64.23 61.20 59.17 57.87 57.85 57.19 57.15 57.64 58.70 58.39 58.01 56.56 54.03
70.26 70.31 70.02 69.70 69.18 69.34 68.95 68.37 67.70 67.13 67.20 66.62 66.18 66.12 65.22 61.49 60.71 62.18 63.49 64.44 63.82 63.47 63.30 64.13 63.24 64.73 62.49 61.45 62.19 62.51 63.05 64.07 63.20 60.51 57.57 57.09 57.51 58.31 58.97 58.27 57.02 56.60 55.49
71.01 70.84 70.03 70.31 69.42 69.28 68.47 67.73 67.39 67.42 66.23 65.89 66.19 66.05 64.19 60.72 58.33 58.27 60.61 63.22 64.48 64.06 64.16 63.11 62.77 62.86 63.84 61.78 61.27 61.68 60.91 61.75 63.82 64.91 61.84 58.94 58.83 58.92 59.54 59.29 58.19 57.46 58.67
69.74 66.70 64.64 67.19 69.06 69.44 68.23 67.75 67.73 67.63 67.37 67.12 66.79 65.89 65.83 60.85 56.39 56.78 58.51 61.01 62.95 63.73 64.03 63.53 63.03 62.08 59.71 60.08 63.69 61.92 61.27 59.90 58.97 59.90 61.37 60.46 58.84 58.33 59.50 58.51 56.60 56.38 55.50
61.78 61.49 62.13 61.54 60.48 59.27 64.56 68.42 68.52 68.20 67.81 67.86 67.04 67.02 65.58 62.25 55.13 54.99 57.97 61.00 61.60 63.90 63.28 62.96 63.07 61.32 57.37 58.27 62.79 62.27 60.33 59.86 59.73 58.69 59.63 59.52 59.85 59.24 58.82 59.10 57.90 56.14 56.76
61.67 61.33 61.35 61.02 61.42 61.02 58.68 68.14 69.37 68.50 68.14 67.26 66.63 67.03 67.54 66.34 59.85 53.45 54.80 61.63 61.66 63.21 63.26 62.73 60.46 57.03 54.56 55.01 58.36 61.55 60.52 60.68 60.08 59.66 59.73 59.87 60.99 60.30 60.30 60.91 60.72 59.64 58.09
60.23 60.76 61.26 61.58 61.64 61.54 60.23 65.85 69.48 68.93 67.66 67.28 66.61 66.72 68.02 67.66 61.02 53.79 54.21 57.22 60.63 62.43 63.47 63.65 62.88 54.47 52.20 52.29 54.38 55.07 54.48 56.26 59.95 59.95 59.17 59.00 59.24 59.24 59.60 59.92 60.58 61.17 61.15
60.68 60.57 61.87 61.35 65.13 62.70 63.61 69.05 69.07 69.14 68.11 67.24 67.42 66.69 66.24 66.46 64.56 56.96 55.09 56.42 57.21 58.37 61.90 60.90 54.93 51.40 49.99 51.52 52.89 52.53 52.24 52.99 54.08 54.23 55.55 58.89 60.52 61.52 60.45 58.67 58.98 58.83 59.23
62.41 61.90 61.82 62.35 62.02 67.48 68.52 69.93 69.33 68.97 68.40 67.53 66.40 64.45 64.70 65.13 65.60 63.47 60.37 58.17 57.33 59.56 58.75 54.91 53.82 53.33 52.92 54.36 52.44 50.00 50.26 52.03 54.64 53.74 54.31 56.75 56.95 59.69 60.24 61.22 59.61 59.25 58.55
64.55 65.25 65.20 63.87 65.25 67.35 66.06 62.32 65.62 66.99 66.60 66.67 64.81 63.95 64.16 63.79 58.60 55.01 59.68 62.68 63.00 59.66 60.57 60.90 57.40 57.32 56.96 57.46 55.69 53.94 52.30 52.00 50.92 52.16 54.68 55.14 54.25 53.77 57.72 62.02 61.06 59.64 58.63
58.88 60.87 62.04 63.80 65.33 65.15 62.52 60.95 54.65 55.55 53.02 50.66 53.74 58.80 59.14 54.29 49.75 46.85 46.31 46.85 48.49 51.75 60.41 61.11 61.49 61.10 60.52 59.99 59.07 57.02 57.84 57.28 55.31 55.64 55.03 55.83 54.67 55.28 56.06 55.80 55.79 54.73 56.07
56.88 57.76 57.90 58.09 59.88 63.43 62.36 61.05 59.44 57.01 50.12 50.30 47.76 49.39 50.12 50.48 47.94 47.40 46.85 44.86 45.58 51.93 60.28 59.38 59.07 59.60 59.01 59.19 59.05 59.09 58.85 59.77 59.66 58.68 57.21 55.95 56.11 56.40 56.02 55.65 55.53 55.01 54.09
57.94 53.99 57.09 57.65 58.99 59.26 59.80 63.22 60.97 59.74 58.53 55.84 48.47 50.48 47.94 47.76 46.67 42.87 43.37 46.85 53.49 53.17 57.16 58.98 58.11 59.00 59.11 59.01 59.07 58.77 58.71 58.77 57.93 57.03 56.56 56.88 56.54 56.20 55.42 55.36 55.46 54.35 53.81
56.92 56.90 56.82 56.92 57.05 57.73 58.83 58.70 58.82 59.68 60.34 58.45 57.43 51.00 46.20 44.10 44.81 43.92 43.23 55.19 57.45 57.49 58.04 59.48 58.77 57.99 58.61 58.23 57.75 56.88 56.24 55.32 54.92 54.70 54.58 54.72 54.76 54.37 53.62 53.86 53.35 50.40 51.38
57.40 56.13 56.42 56.10 55.84 56.52 57.43 58.73 58.87 58.41 59.30 60.12 58.47 57.45 53.06 51.28 53.71 53.74 53.80 55.83 56.40 59.49 60.46 59.35 58.01 57.25 56.72 56.20 54.98 54.05 53.49 51.75 52.72 52.68 51.98 52.74 53.09 52.72 51.60 50.91 50.53 50.55 49.43
59.75 59.51 57.88 57.63 57.07 55.77 55.49 56.68 56.80 55.34 57.73 58.05 59.23 58.79 51.57 56.82 58.31 57.68 58.98 59.01 59.32 59.09 59.19 58.61 58.15 57.88 56.64 54.90 53.86 52.90 52.20 52.49 51.92 51.81 51.47 51.47 51.47 50.87 51.23 52.06 51.95 52.52 52.64
55.60 56.65 58.74 58.63 59.62 59.37 57.74 56.30 56.20 58.92 56.21 56.50 58.79 55.78 50.58 58.70 57.62 57.24 57.30 57.78 58.12 57.33 56.95 55.58 54.17 54.00 53.72 53.89 53.54 52.88 51.30 50.67 51.14 51.76 52.95 54.23 53.61 51.66 51.04 50.62 50.64 50.21 52.01
55.39 54.74 54.55 56.02 56.56 57.35 59.61 59.43 58.75 58.35 59.45 59.00 58.65 57.58 56.17 55.39 55.03 55.38 55.32 55.37 55.24 54.33 54.63 54.13 53.59 53.85 52.19 51.53 50.81 49.91 48.80 48.66 49.61 49.82 49.00 49.67 49.61 50.61 51.03 50.56 52.10 51.49 48.78
55.09 55.12 55.36 53.97 56.79 57.38 58.18 58.17 57.71 55.66 57.94 56.35 55.97 56.28 55.70 54.91 54.95 54.55 54.41 54.28 53.90 53.11 52.77 52.32 52.37 51.28 50.76 49.90 48.03 44.46 41.83 38.59 44.03 41.92 44.12 45.71 47.50 47.43 47.71 47.72 48.14 46.97 46.41
56.34 57.43 57.35 56.94 56.27 56.50 57.39 56.29 55.86 55.11 54.99 54.89 54.58 54.53 55.03 53.62 51.96 52.14 52.79 51.90 52.96 50.35 49.36 48.98 46.96 44.56 42.03 39.92 37.91 36.07 32.55 30.32 33.79 33.69 38.40 41.22 44.13 46.45 46.46 45.90 45.81 45.01 44.45
56.29 57.14 56.26 55.37 55.57 55.59 55.21 55.09 54.74 55.09 54.79 54.77 54.74 53.24 52.24 51.60 51.23 51.78 51.62 52.19 52.40 48.50 46.17 45.37 43.88 42.12 39.94 37.57 34.17 31.83 30.93 30.17 32.19 31.01 33.06 41.61 44.92 44.57 44.45 43.55 43.28 43.50 43.16

GFSGL_sfc_wetblb_084.txt.gz
Wetbulb
69.97 70.61 70.84 70.24 70.52 71.33 70.22 68.85 68.18 67.64 66.99 66.32 66.79 67.24 67.66 67.42 66.73 66.83 66.95 66.95 66.43 65.67 66.16 66.03 66.10 66.70 66.49 66.85 67.48 67.00 66.84 63.26 60.53 60.29 62.06 62.93 63.06 63.45 63.36 62.71 63.26 63.20 63.59
69.01 69.77 70.49 71.57 70.80 69.46 69.41 68.67 68.67 66.99 66.77 66.10 66.19 66.36 66.62 66.58 65.75 64.74 65.30 66.70 65.61 65.07 65.81 65.72 65.87 68.31 65.82 66.65 66.62 66.37 66.44 62.73 60.47 59.02 60.75 60.79 61.82 62.50 61.85 61.13 61.72 62.85 62.60
67.51 70.02 70.49 70.48 69.20 68.81 68.83 69.23 68.99 68.22 67.17 66.95 66.86 65.74 64.34 64.63 64.72 64.28 65.45 65.30 65.38 65.30 65.12 64.52 64.80 65.80 64.92 64.79 65.46 65.48 63.81 62.32 61.69 60.27 58.62 59.35 60.25 61.60 60.63 60.96 60.06 60.12 62.17
70.04 69.95 69.62 69.02 69.25 68.86 69.38 69.50 68.83 68.40 67.78 67.30 66.30 63.08 62.50 63.92 64.63 66.19 65.96 64.89 64.49 64.56 64.56 64.23 63.96 64.26 64.24 64.55 63.75 62.57 61.39 60.51 61.69 60.14 59.46 58.34 58.92 60.09 60.60 59.90 58.44 58.54 59.24
69.93 69.26 68.89 68.50 69.03 68.72 68.74 68.72 68.87 68.13 67.89 65.40 64.56 63.11 62.82 63.82 65.69 64.70 65.50 64.56 64.24 63.41 63.53 61.77 61.04 63.45 65.11 65.17 63.82 61.51 59.60 58.72 59.90 59.05 58.23 57.37 57.59 58.46 58.70 59.80 58.61 57.63 56.69
69.97 69.14 69.22 68.72 68.51 68.57 68.46 68.56 67.86 67.26 66.63 65.12 64.88 64.12 63.22 64.67 61.74 62.21 64.79 64.33 64.20 63.03 62.60 60.62 61.07 63.98 63.14 63.45 64.59 63.08 61.39 58.61 58.97 59.07 58.25 58.01 57.95 58.31 59.19 59.35 58.19 56.79 55.40
69.80 69.59 69.35 68.41 68.07 68.03 68.05 67.99 67.21 66.36 65.81 65.49 64.80 64.57 63.80 63.36 60.29 60.52 63.04 62.96 61.95 62.84 62.40 60.68 61.79 62.92 62.22 62.41 61.91 62.77 62.05 61.65 60.84 58.07 58.01 58.57 57.83 58.93 59.40 58.55 57.73 56.86 55.97
68.52 67.21 67.23 67.64 66.47 65.80 65.58 65.15 65.53 65.89 65.54 65.04 64.60 64.76 64.43 62.78 58.62 58.35 60.85 63.30 63.56 62.63 62.36 63.07 61.90 61.54 60.50 60.93 60.74 60.30 60.66 61.62 61.78 61.26 58.95 58.01 58.52 59.05 59.72 59.86 59.02 57.36 58.15
63.55 61.74 62.04 62.34 62.50 62.79 62.75 62.56 62.54 65.93 65.80 64.98 64.85 64.52 63.85 60.85 56.40 56.05 58.10 61.32 62.62 63.03 62.98 62.00 61.77 61.78 60.20 58.54 61.13 60.22 59.37 59.55 58.83 60.18 60.34 58.14 57.74 57.66 58.85 58.99 57.13 56.67 55.79
61.47 61.96 62.42 62.45 62.80 63.02 64.50 63.02 63.14 62.88 65.76 66.97 66.21 65.76 63.18 63.07 54.87 53.88 56.19 58.99 60.06 61.84 61.79 62.16 60.64 60.85 56.59 56.53 61.88 60.57 58.93 58.95 59.10 58.54 59.41 57.57 57.37 58.09 58.36 60.10 58.49 56.66 55.77
60.52 60.61 60.55 60.99 60.60 62.01 63.76 63.98 62.36 61.10 62.83 64.48 66.58 66.75 66.00 64.04 60.47 52.73 53.17 58.92 59.54 60.78 62.36 61.37 60.95 56.21 53.07 52.50 57.25 61.45 59.89 59.51 58.85 58.33 58.13 58.22 57.69 57.15 58.38 58.26 59.44 58.99 57.34
59.44 59.48 59.67 60.00 60.70 62.09 61.60 62.62 62.55 61.93 62.06 64.98 66.20 66.45 66.49 65.82 59.07 52.71 52.18 56.11 58.41 61.01 61.71 62.15 61.76 53.33 50.67 50.76 55.46 54.81 53.66 57.65 58.68 57.99 57.15 57.05 57.35 57.71 58.34 58.20 58.15 58.86 60.33
58.90 59.69 59.91 61.73 60.72 62.34 61.35 59.40 60.10 59.94 60.33 62.00 64.90 65.78 65.82 65.81 64.72 56.10 54.31 55.96 57.21 59.55 58.43 57.91 57.23 55.06 53.24 51.65 52.73 52.06 52.16 55.12 56.57 57.21 56.83 57.13 58.20 59.36 58.29 57.37 57.73 57.81 57.63
62.42 62.26 61.41 61.44 62.59 61.94 64.69 65.82 63.27 63.98 63.34 63.90 66.02 65.88 65.16 64.40 63.83 61.84 59.49 57.69 56.87 59.89 60.59 57.55 55.47 55.51 55.07 55.61 53.06 50.73 53.08 53.65 53.13 51.96 53.23 55.23 56.90 57.57 58.08 58.50 57.63 58.00 57.81
57.77 59.08 60.38 63.03 64.47 64.83 64.83 60.68 62.97 63.87 61.38 64.99 66.19 65.79 62.88 63.65 63.49 59.23 59.21 60.21 59.95 59.49 60.05 57.41 54.51 54.67 54.99 55.83 56.53 55.43 53.60 52.57 51.85 52.65 53.24 54.42 54.29 54.08 55.04 59.44 58.54 58.00 58.13
54.85 55.97 57.11 58.15 60.17 62.50 62.93 58.98 51.54 50.67 48.48 50.71 52.52 59.95 61.58 53.97 50.71 48.71 48.53 50.16 52.34 52.70 60.23 59.72 57.57 57.31 56.83 56.95 57.57 56.99 56.66 55.93 54.60 54.24 54.84 55.01 55.39 55.19 55.16 55.26 57.60 59.10 58.86
53.94 54.34 55.38 56.27 57.65 58.46 61.09 60.59 58.42 54.33 48.53 44.49 46.17 47.08 51.25 51.43 48.53 47.26 46.90 47.62 46.36 51.07 59.63 59.87 60.19 60.19 59.85 59.87 59.63 58.98 58.56 58.86 58.13 58.90 56.73 56.04 55.47 55.87 54.71 55.71 55.71 55.33 54.42
54.03 52.40 53.76 55.73 57.39 57.97 58.46 60.55 60.03 58.94 55.97 53.81 47.06 44.89 43.64 44.36 45.63 45.27 46.17 51.07 56.79 54.94 58.50 58.47 57.85 58.08 58.50 58.10 58.30 58.12 57.91 58.16 57.63 56.85 56.41 56.55 56.63 56.29 55.58 55.20 55.22 55.10 54.62
56.99 54.31 54.15 54.17 54.57 56.63 58.82 58.77 59.60 58.63 57.21 56.69 55.58 50.31 46.46 42.73 42.73 43.27 44.18 56.33 56.39 55.79 56.97 58.31 58.38 58.30 58.22 58.24 57.71 56.79 56.33 55.36 54.76 54.50 54.04 54.04 54.24 54.06 53.13 53.09 53.07 49.53 50.77
58.73 57.06 55.59 55.23 54.31 54.13 55.67 56.71 58.60 58.72 58.84 57.51 56.87 55.54 53.51 52.85 54.30 54.24 54.34 55.75 56.55 58.18 59.04 58.19 57.29 57.19 56.63 55.56 54.40 54.52 53.04 51.51 52.12 51.09 50.19 51.75 49.95 50.08 49.37 48.80 48.78 48.29 50.05
54.65 55.33 56.87 57.82 57.00 56.01 54.96 55.29 54.48 56.03 56.73 58.56 57.61 53.95 46.72 56.75 55.79 55.51 56.45 58.08 58.68 59.90 58.81 57.83 56.97 55.69 54.64 53.74 53.19 51.71 51.11 50.91 50.96 50.85 49.80 50.81 49.59 48.88 48.77 48.85 48.72 49.01 50.17
53.37 52.94 53.19 54.62 57.56 58.00 57.53 55.55 56.86 56.81 56.18 58.05 57.96 55.68 48.35 57.35 58.59 58.05 57.61 57.01 56.29 55.97 55.00 54.39 53.18 52.77 53.50 53.13 53.47 51.26 50.43 49.83 49.68 49.70 49.23 50.14 50.45 49.86 48.99 48.69 48.71 51.61 50.86
53.13 53.13 53.11 52.55 53.18 53.70 57.46 58.24 55.51 57.27 57.21 57.49 58.64 55.81 54.19 54.89 55.12 55.02 55.00 54.60 54.23 52.93 52.77 52.09 50.23 49.83 50.02 49.41 48.97 48.68 47.89 46.42 44.43 43.09 44.05 45.29 46.96 47.10 47.21 47.75 48.87 47.24 45.36
54.19 54.60 53.91 54.82 53.47 55.57 55.69 55.50 56.04 54.13 57.43 56.11 55.43 54.82 55.39 55.69 55.24 54.68 53.72 52.00 51.35 50.94 51.35 50.44 49.46 48.07 46.14 43.53 40.78 37.40 37.18 37.22 37.61 38.14 40.07 40.87 43.71 44.59 45.42 45.26 45.53 44.76 44.03
55.41 54.99 54.79 54.31 54.07 54.32 54.38 55.00 54.02 53.58 53.63 54.62 54.72 54.66 54.22 54.01 52.83 52.75 51.81 50.77 49.61 49.15 46.96 44.53 41.47 39.86 38.80 37.77 36.17 34.27 31.30 30.28 32.39 32.90 36.99 41.82 43.57 44.01 43.59 42.71 43.40 42.65 42.14
54.33 54.17 53.02 52.34 52.95 52.84 52.98 52.89 53.42 53.15 53.85 54.05 54.17 54.04 53.35 50.73 49.48 50.10 49.88 47.45 46.46 46.03 43.06 40.92 39.27 37.83 36.01 34.20 33.24 31.45 30.55 29.97 32.02 31.36 36.36 40.08 39.09 37.37 38.62 40.82 41.21 41.34 40.81

GFSGL_sfc_wetblb_087.txt.gz
Wetbulb
68.95 69.24 66.52 66.52 67.21 68.64 69.56 69.33 68.40 67.30 66.70 66.54 66.92 66.83 66.72 67.06 66.97 67.17 67.13 66.52 65.80 65.39 65.96 65.46 65.49 65.87 65.79 65.85 66.26 66.66 66.16 64.08 60.89 60.43 62.04 63.27 63.43 63.63 63.07 62.03 62.72 61.87 63.21
68.65 69.55 69.26 69.64 69.71 69.74 68.92 68.07 67.28 66.77 66.09 65.51 65.43 65.47 66.08 66.48 65.83 65.70 65.58 66.52 65.78 64.48 64.71 64.79 64.79 66.88 65.21 65.41 65.37 65.37 66.16 62.85 61.03 59.24 60.75 61.88 62.00 62.36 61.60 60.57 61.68 62.56 62.28
68.47 68.43 68.43 69.51 68.79 68.00 68.23 67.57 67.39 66.52 65.98 65.12 64.94 64.83 64.96 65.56 65.14 64.67 64.52 64.78 64.62 64.60 64.93 64.75 64.71 64.79 64.17 63.98 65.06 65.30 65.12 63.30 61.55 60.51 58.82 59.51 60.80 61.66 60.41 60.79 60.36 60.79 62.62
66.54 68.36 68.79 69.01 68.07 67.57 67.66 67.69 67.69 67.19 66.65 65.94 65.94 64.83 63.09 63.51 63.86 64.36 64.38 63.97 64.08 63.82 64.04 63.77 63.70 64.38 63.97 63.37 63.99 63.77 62.89 62.28 61.94 60.65 59.71 58.40 59.44 60.37 60.41 59.12 58.08 59.34 59.44
68.09 68.36 68.70 68.54 68.50 67.91 67.93 67.91 67.84 67.53 67.44 67.06 66.14 63.51 61.78 62.83 64.35 64.69 64.79 64.21 63.21 62.90 62.86 62.26 60.96 63.11 65.43 64.70 62.42 59.99 60.49 61.19 60.57 60.01 59.30 58.60 58.02 58.78 58.48 59.52 58.46 57.94 58.05
68.92 68.23 68.52 68.14 67.66 67.66 67.89 68.09 68.14 67.33 67.01 65.46 64.08 63.27 62.30 63.40 61.78 62.22 64.40 63.85 63.58 62.80 62.11 60.01 59.68 64.20 63.22 64.39 63.76 62.19 60.76 60.20 59.53 59.20 58.24 58.39 58.26 59.18 59.41 59.26 58.27 56.43 55.42
68.23 68.56 68.56 68.27 67.39 67.64 67.80 67.57 67.39 66.56 65.60 64.90 64.06 63.57 62.79 62.49 60.61 59.21 62.06 63.89 62.93 62.54 61.99 60.37 60.56 62.13 62.35 62.06 61.73 61.60 61.29 60.96 61.30 59.90 59.38 59.33 58.84 59.53 59.85 59.08 58.44 57.14 55.35
68.18 68.41 68.32 67.39 66.68 66.20 65.57 65.41 65.18 65.90 65.87 65.36 65.05 64.34 63.67 63.62 59.70 57.42 59.80 62.64 61.21 61.77 62.52 61.55 60.35 60.99 60.09 61.29 61.14 60.68 60.16 59.71 59.31 59.72 58.93 58.75 58.51 59.41 60.71 60.39 59.70 58.22 57.97
66.31 65.52 65.40 65.34 64.48 64.20 63.86 63.53 63.89 64.38 65.73 65.83 65.45 65.30 64.19 64.08 57.53 56.20 58.24 62.01 62.19 62.11 61.67 62.03 61.85 61.15 59.05 57.97 60.45 59.41 58.69 58.85 58.68 58.71 58.92 58.28 57.58 57.71 58.60 59.82 57.64 57.09 56.29
63.55 62.89 62.65 63.02 62.97 62.90 63.12 64.04 64.45 62.47 62.43 64.81 65.71 65.58 63.49 64.62 56.60 54.29 57.44 60.59 60.94 61.48 61.49 61.57 59.55 60.64 56.85 55.39 59.98 59.03 57.93 58.35 59.07 58.99 58.78 56.83 56.79 57.01 58.41 60.70 59.25 57.47 56.29
62.48 62.27 61.82 61.43 62.52 62.53 61.86 62.32 62.32 62.25 60.99 61.28 62.64 64.72 65.34 64.31 62.46 52.76 53.21 59.42 60.72 60.40 61.39 60.74 60.86 56.37 53.43 52.20 55.62 60.36 59.21 58.59 58.63 58.05 57.47 57.59 56.27 55.45 56.27 57.97 59.48 59.51 57.17
59.64 59.42 59.82 60.62 60.99 61.24 58.96 59.42 61.65 62.03 61.64 61.34 60.69 61.87 64.69 65.12 58.65 52.20 51.46 54.98 58.33 58.85 59.35 60.74 60.70 54.74 50.66 49.69 52.28 55.42 54.69 56.81 58.22 56.99 56.05 55.77 57.68 58.18 56.73 56.69 56.51 56.85 59.64
62.93 61.95 61.81 61.79 61.35 60.81 58.98 59.86 61.01 61.35 59.77 59.28 59.87 60.69 62.98 64.95 63.55 54.01 50.24 53.79 56.47 59.32 59.82 58.29 55.96 54.69 51.61 50.46 51.71 52.46 52.95 58.54 57.43 56.31 56.45 57.81 58.47 58.93 57.11 56.89 56.39 56.69 56.43
56.35 56.85 59.09 59.18 61.95 62.81 62.18 62.82 64.15 62.02 60.69 59.99 59.92 61.59 62.93 62.81 63.53 59.51 57.63 58.40 57.23 60.11 58.84 59.53 57.01 55.70 55.24 57.51 56.03 55.55 55.81 55.66 57.09 57.56 57.13 56.37 57.27 58.34 58.62 58.40 57.17 58.30 57.94
54.35 54.79 56.29 58.49 58.94 59.50 60.73 57.74 57.29 62.76 59.37 61.77 60.90 62.35 62.68 63.99 64.11 57.03 56.97 59.95 60.89 59.53 59.75 57.57 55.68 54.20 55.36 57.31 57.27 56.87 54.32 54.39 53.30 53.32 53.07 53.71 54.29 53.60 56.38 58.92 58.42 57.53 57.63
52.78 53.52 53.68 54.86 56.01 58.37 58.68 60.79 49.60 46.83 44.69 45.43 47.44 57.76 61.90 57.05 52.34 50.71 49.80 50.53 51.43 50.34 59.35 60.01 57.13 56.27 55.89 56.07 56.81 56.83 56.17 55.47 55.22 54.55 53.94 54.13 54.23 54.19 54.56 55.18 56.63 58.92 57.47
51.87 52.51 52.68 55.02 57.07 56.45 58.56 59.18 59.51 54.68 45.94 46.28 42.55 43.82 50.34 52.52 48.89 48.71 47.62 47.26 47.62 50.34 60.89 60.67 59.61 57.29 56.93 57.65 58.09 58.76 58.52 58.68 58.27 57.47 56.47 55.37 56.21 55.61 55.13 55.15 54.81 54.95 52.84
55.75 51.64 52.54 52.39 54.47 57.05 58.26 59.02 59.77 56.73 54.92 53.07 47.59 46.54 41.81 44.36 45.81 44.54 45.27 49.44 54.09 55.00 60.51 60.39 60.03 59.99 59.74 59.24 58.62 57.88 58.26 57.92 57.53 56.79 56.21 56.33 56.55 56.29 55.82 55.28 55.28 55.12 54.50
56.41 57.19 56.97 55.08 55.43 53.66 56.05 58.48 59.04 58.28 57.05 56.07 55.46 49.60 45.00 42.37 44.91 46.72 47.99 59.79 58.90 57.61 58.60 58.06 58.18 58.02 58.04 58.22 58.04 57.51 56.89 55.82 55.10 54.48 53.88 54.18 53.88 54.04 52.89 52.89 52.86 49.89 50.70
54.43 54.54 55.13 56.39 56.59 55.85 55.25 55.77 57.47 57.73 56.81 56.89 56.37 55.16 54.94 54.72 55.82 55.34 55.90 56.79 57.27 57.45 58.44 57.68 57.31 57.47 57.07 56.41 55.52 54.64 53.32 52.53 51.60 51.31 50.84 50.46 50.24 49.75 49.61 49.17 48.65 47.70 47.70
52.92 52.54 53.55 52.47 54.83 56.76 56.13 55.43 54.02 56.33 55.63 56.21 56.59 54.11 47.62 57.07 56.07 55.54 55.90 57.35 57.86 59.22 57.90 57.19 55.99 54.98 53.90 52.55 52.29 51.53 50.46 50.18 50.62 50.21 50.17 50.81 49.90 48.99 48.27 48.09 47.77 50.92 51.52
51.60 51.36 51.26 51.41 51.97 52.81 56.05 55.55 54.51 54.19 56.97 57.21 57.45 54.58 47.62 58.34 58.14 57.31 56.25 56.23 56.27 56.81 57.15 55.75 54.27 53.70 53.76 52.97 51.52 50.23 49.73 48.97 48.71 49.33 47.64 47.89 48.51 48.56 48.02 47.66 48.44 49.41 48.05
51.89 51.96 52.22 52.08 51.89 51.78 53.37 55.61 56.11 55.65 56.21 57.59 57.19 55.07 55.13 55.21 55.65 55.59 54.88 54.50 54.30 53.85 52.99 52.78 51.02 49.27 49.21 48.67 48.71 48.37 45.82 43.65 42.21 42.10 42.29 44.97 45.11 45.11 45.76 46.81 47.15 45.65 44.45
52.19 53.17 53.32 53.36 53.50 53.23 53.88 56.75 54.74 52.66 56.81 56.29 55.11 55.39 55.15 55.15 54.21 52.98 52.44 52.55 51.42 50.39 49.49 48.47 46.88 43.98 41.49 40.64 40.13 38.87 37.05 36.43 37.07 38.23 40.12 42.35 43.64 43.28 44.00 44.21 43.97 43.60 42.95
52.75 52.24 51.83 52.30 52.70 52.39 55.24 55.03 55.07 54.77 54.43 52.70 52.19 53.30 53.73 53.63 52.30 51.26 50.54 50.14 48.34 45.60 42.69 40.36 39.44 39.12 38.01 36.85 35.38 33.52 31.33 30.11 33.80 33.97 40.59 42.71 43.04 42.55 42.40 41.64 41.85 40.98 40.78
51.36 52.10 50.77 50.84 51.19 51.15 53.65 53.63 53.27 51.87 53.57 53.82 53.78 53.76 53.93 52.11 51.30 48.97 47.78 47.18 44.96 41.89 39.63 38.09 36.79 35.72 34.90 33.69 32.66 31.03 30.27 30.29 32.93 33.53 37.00 35.77 34.18 34.02 35.74 35.75 36.88 38.59 37.81

GFSGL_sfc_wetblb_090.txt.gz
Wetbulb
69.32 69.19 67.19 66.25 66.12 66.07 66.55 69.83 70.55 69.52 69.01 68.67 68.74 68.63 68.46 68.55 69.31 69.36 68.23 67.98 67.35 67.73 68.63 68.31 68.26 68.66 69.15 69.24 69.40 69.20 68.59 67.51 64.82 62.77 64.64 64.74 65.06 64.47 63.72 64.35 64.65 65.03 65.87
69.08 69.05 66.98 66.93 67.69 67.60 69.77 70.28 69.72 69.12 68.15 68.01 68.00 67.79 68.03 68.32 68.15 68.03 68.06 68.34 67.78 67.37 67.85 67.73 67.77 67.95 68.11 68.56 68.23 68.14 68.07 67.91 65.47 62.59 62.63 63.17 63.22 63.25 62.18 61.84 63.02 63.74 64.56
69.42 68.85 68.55 69.27 69.95 70.22 70.36 69.70 68.98 68.29 67.57 66.78 66.85 66.79 67.05 67.43 67.25 67.24 67.62 67.84 67.56 67.60 67.11 67.09 67.60 67.52 67.77 67.84 67.96 67.50 67.57 65.35 64.17 63.54 61.74 61.16 61.88 62.36 60.91 61.37 61.72 63.02 63.82
69.17 68.91 68.53 69.75 70.22 69.94 69.88 68.98 68.67 68.15 67.39 66.54 66.63 67.04 66.78 66.98 67.13 66.88 66.22 66.36 66.45 66.78 67.13 67.31 66.88 66.78 67.32 67.46 67.10 66.42 64.86 63.65 62.96 62.14 61.52 60.99 61.66 61.62 61.19 59.12 58.80 61.20 61.15
68.60 68.68 68.65 70.28 70.08 69.20 68.80 68.67 68.69 68.26 67.88 67.63 67.32 67.22 65.35 65.38 65.55 66.38 66.29 65.94 65.96 65.87 65.98 65.82 65.76 65.29 65.16 66.21 66.25 64.88 63.84 62.97 62.16 61.14 59.69 59.75 59.68 60.07 59.48 59.62 58.61 58.83 60.03
68.02 67.98 69.30 69.70 69.54 68.98 68.75 68.80 68.74 68.53 68.38 67.91 67.37 66.96 64.17 63.94 61.36 62.14 65.65 66.21 65.83 65.41 64.88 64.41 62.90 64.39 64.87 63.76 63.97 62.60 64.24 64.09 61.84 60.58 60.01 59.95 60.06 60.41 60.50 59.60 58.59 57.65 56.67
69.14 68.50 69.09 69.52 68.51 68.98 68.86 68.93 68.76 68.13 68.26 67.73 66.77 66.19 65.01 64.52 59.52 59.78 62.69 66.52 65.71 65.52 65.03 64.37 62.58 63.37 64.08 65.63 62.74 61.63 61.51 61.41 62.19 63.46 60.94 61.00 60.20 61.27 61.17 59.54 59.44 58.65 59.04
68.11 68.81 69.19 69.15 68.72 68.56 68.49 68.61 68.59 68.79 68.00 67.57 66.90 66.10 65.52 65.00 58.96 57.21 59.89 66.25 66.12 65.58 65.45 64.85 63.77 63.55 63.40 64.92 65.29 63.17 63.06 62.93 62.91 62.96 63.91 63.66 63.99 62.22 61.74 61.62 60.68 59.24 59.04
67.30 68.25 68.56 68.74 68.09 67.57 67.26 67.75 67.84 66.96 66.69 66.59 66.78 66.61 65.70 65.65 57.31 56.27 58.57 64.46 64.44 64.21 64.69 65.20 64.28 63.75 59.56 58.68 64.82 64.15 63.83 63.24 60.22 57.79 58.76 58.42 57.71 58.17 61.40 61.28 58.87 58.07 57.19
64.44 64.20 64.40 64.57 65.15 65.33 65.42 64.83 64.96 64.34 63.88 64.50 64.79 66.68 63.93 66.23 58.23 55.08 57.42 64.04 63.84 64.17 64.61 64.41 60.20 63.05 56.01 55.50 64.15 63.71 62.67 63.29 63.32 63.20 62.66 59.78 59.00 59.44 58.71 63.31 61.11 58.49 57.89
61.62 61.97 62.37 62.44 62.98 63.59 63.42 63.63 63.60 63.23 63.55 63.37 62.85 64.17 65.27 65.54 65.85 54.78 53.18 64.17 64.09 63.77 63.95 63.69 64.30 56.07 52.97 52.00 55.81 63.21 62.42 62.67 61.24 63.52 63.34 62.18 61.13 60.95 61.27 62.33 62.26 61.11 58.81
62.89 62.96 62.92 63.14 62.32 62.35 62.01 62.14 61.26 61.37 62.15 62.79 63.70 64.05 64.17 64.50 59.57 56.45 53.96 56.92 59.74 63.79 63.70 64.89 64.47 53.29 50.11 49.62 53.12 55.20 53.23 57.84 62.67 61.97 61.33 61.39 59.53 59.52 60.58 60.98 61.95 62.33 62.28
58.80 59.02 60.23 60.78 61.66 63.44 62.12 61.73 60.81 61.43 61.68 62.52 62.35 62.08 61.97 62.39 63.38 55.24 52.01 54.76 55.63 62.30 63.35 61.06 55.42 49.98 48.33 50.65 50.76 51.23 51.76 62.14 61.99 60.99 60.96 60.86 61.11 61.88 61.36 61.03 61.37 61.57 61.83
56.49 57.05 58.25 58.59 58.71 60.94 61.48 62.15 62.18 62.50 62.70 62.46 61.55 60.83 62.32 61.99 62.38 59.71 57.11 56.73 58.12 61.17 58.86 59.35 58.10 57.19 55.42 57.45 56.65 56.19 61.18 62.96 62.54 62.55 61.22 61.09 60.76 61.41 61.54 61.61 59.48 59.19 59.21
55.59 55.95 56.03 56.93 57.31 57.87 59.86 60.33 59.33 59.58 56.29 57.47 61.37 62.01 61.22 63.80 63.88 56.49 56.25 59.93 60.89 59.80 60.75 60.31 58.84 58.82 57.90 58.76 58.00 57.15 56.63 57.11 57.22 57.66 56.98 56.15 56.26 57.71 58.46 60.60 60.05 59.98 59.13
55.38 55.12 54.80 55.21 57.07 57.69 58.01 59.26 48.71 47.57 44.85 42.35 42.17 48.35 60.33 54.88 48.89 48.17 47.81 48.53 49.62 51.98 60.43 59.16 58.60 58.20 58.80 58.60 58.62 57.09 55.78 54.95 55.27 56.45 57.07 57.27 56.25 56.56 56.30 57.26 60.20 58.86 57.87
56.51 56.23 55.53 54.40 55.99 56.39 57.87 59.00 58.36 52.70 45.40 44.36 43.09 42.73 41.99 42.53 46.36 46.90 46.36 46.17 47.99 51.25 61.73 61.41 60.99 58.70 58.48 58.28 58.32 57.90 56.67 56.13 57.03 56.41 56.19 55.99 55.49 56.80 57.12 56.75 55.47 55.91 56.27
57.81 52.55 56.81 56.19 55.91 55.99 56.95 59.04 59.05 57.55 55.40 55.36 48.69 43.64 41.08 41.44 43.46 42.55 42.91 46.54 52.28 53.15 61.45 61.66 61.11 60.75 58.64 57.78 57.75 58.72 59.48 58.74 58.38 58.04 57.51 57.67 57.25 57.47 57.23 56.63 56.63 56.03 55.71
55.91 56.67 56.61 57.07 57.45 56.13 56.65 57.66 59.17 58.56 57.87 57.25 57.53 51.66 49.40 45.63 46.36 44.72 44.36 58.82 59.88 57.73 59.85 59.67 59.83 59.28 59.08 58.72 58.58 58.02 57.63 56.39 55.86 55.32 55.16 55.32 55.68 55.69 54.30 53.68 53.08 50.39 51.52
55.04 54.12 53.92 55.19 55.53 56.71 57.62 57.28 58.35 58.40 58.53 57.95 57.07 56.33 57.85 56.07 56.49 56.49 57.43 58.14 58.18 59.14 58.34 57.75 57.98 57.94 57.55 57.01 55.99 55.10 54.72 53.83 53.87 53.81 53.11 53.50 53.56 53.54 53.21 53.09 53.31 52.37 52.94
54.81 54.54 53.29 53.88 53.89 54.66 55.95 57.47 57.48 57.74 58.28 57.51 56.51 54.76 44.91 57.13 56.33 56.73 57.65 57.68 58.84 58.08 57.51 57.11 56.43 55.51 55.05 54.37 53.83 53.25 53.14 52.75 53.28 53.35 53.38 53.00 53.09 52.19 52.58 52.68 52.66 53.22 53.44
54.48 54.11 54.15 54.33 54.80 54.78 54.60 55.95 56.96 57.70 58.39 58.25 58.01 55.50 48.17 58.41 56.55 55.99 55.45 55.81 56.17 55.87 55.67 54.77 53.87 53.85 53.82 53.04 53.31 53.10 52.17 51.82 52.23 52.64 53.12 54.07 53.92 53.33 53.35 53.22 53.26 53.11 50.96
54.19 54.21 54.82 55.08 55.36 53.49 55.67 56.70 57.36 57.57 58.41 58.03 55.99 55.83 55.89 55.51 54.71 53.74 53.80 54.18 53.68 53.14 53.28 52.36 51.07 50.15 50.42 50.40 50.63 50.29 49.03 48.22 48.15 50.18 50.93 50.54 50.63 51.01 52.16 52.83 52.17 50.24 50.03
54.74 54.88 54.29 55.18 55.80 56.07 56.91 56.86 57.26 52.23 57.62 56.76 56.58 56.15 55.23 53.92 53.04 52.92 51.92 51.14 50.81 49.96 50.06 48.87 46.64 45.87 44.56 43.09 42.63 42.40 42.53 42.89 44.05 45.48 48.53 49.15 48.88 48.14 50.38 51.19 50.17 49.51 49.39
54.07 54.10 53.82 54.62 55.41 55.35 55.79 55.91 56.37 56.93 56.03 54.82 55.43 54.77 53.86 53.14 52.22 51.95 51.44 49.67 47.67 45.77 44.16 43.31 42.49 42.17 41.28 40.54 40.26 39.53 33.52 31.20 41.42 40.43 48.00 48.70 48.17 48.03 47.56 47.37 47.64 46.73 47.01
52.55 53.36 53.31 54.22 54.67 55.33 54.97 54.43 54.11 54.83 54.15 54.68 54.70 53.85 53.25 51.54 50.24 50.53 49.58 47.98 44.81 42.99 41.89 41.41 40.84 40.44 40.03 39.50 38.97 33.36 31.29 31.22 37.99 35.84 44.43 43.92 43.55 43.78 43.73 43.74 44.47 45.58 44.03

GFSGL_sfc_wetblb_093.txt.gz
Wetbulb
75.27 75.68 75.64 74.96 73.71 72.33 71.50 72.32 73.54 75.29 74.44 73.80 73.84 73.37 72.88 72.61 73.06 73.03 72.58 71.80 70.99 70.14 69.04 68.84 70.17 72.99 71.58 71.84 72.58 71.67 70.28 70.58 68.03 68.96 68.93 68.92 66.86 66.41 66.39 66.75 67.05 67.79 67.57
75.48 75.71 74.41 73.53 71.89 70.99 70.07 70.80 75.15 74.80 74.15 73.84 73.43 72.80 72.50 72.42 72.58 72.09 71.30 71.13 70.89 70.54 71.32 71.87 71.72 71.64 72.19 72.59 71.62 71.39 70.33 69.32 68.30 67.47 66.22 65.51 65.85 65.39 63.88 63.11 63.99 65.11 65.71
75.04 74.27 71.62 71.04 71.35 71.22 71.28 73.18 74.97 74.33 73.67 72.83 72.54 72.11 71.90 71.52 71.41 71.89 71.90 71.61 71.49 71.45 71.67 71.56 71.33 71.25 71.18 71.09 71.44 70.60 69.70 70.46 69.16 67.34 64.28 64.30 63.24 62.95 61.93 62.52 63.07 64.19 64.33
73.18 71.25 70.80 71.64 71.62 72.77 74.50 75.24 74.46 73.94 72.97 72.28 71.99 72.01 71.84 71.59 71.75 71.73 71.42 71.39 71.51 71.59 71.94 71.78 71.22 71.30 71.50 71.43 70.81 70.33 69.36 67.54 66.43 65.28 62.87 62.35 63.15 63.14 62.45 60.12 60.26 62.76 63.00
70.80 71.34 72.47 73.11 73.55 74.72 74.77 74.73 74.09 73.30 72.62 72.28 71.53 71.04 70.83 70.52 70.52 71.10 70.82 70.53 70.48 70.34 70.95 71.17 71.46 70.74 68.15 69.13 69.94 69.46 68.28 65.84 64.76 63.01 62.35 62.01 61.80 61.14 60.75 61.53 60.97 61.02 61.28
71.68 72.47 73.01 73.28 73.85 74.25 74.33 74.22 73.60 73.00 72.66 72.15 71.43 70.55 70.01 69.11 63.07 63.10 68.44 70.49 70.41 70.02 69.90 70.19 70.29 65.55 65.58 64.19 64.87 65.82 68.01 66.85 65.35 63.14 62.62 61.72 61.88 62.75 63.04 62.10 60.12 58.38 58.09
71.44 72.63 72.88 72.72 72.52 73.82 73.60 73.30 73.08 72.89 72.96 72.09 71.59 70.83 70.39 70.43 60.47 60.01 63.04 70.19 69.92 69.89 70.02 69.87 69.00 67.35 66.21 68.64 64.17 62.54 63.40 62.88 64.84 67.10 63.12 62.99 62.77 63.36 62.86 61.50 60.55 60.85 60.62
66.86 71.73 71.97 71.86 72.74 73.55 73.53 73.21 73.41 73.20 72.93 72.09 71.62 71.52 71.16 70.77 59.85 57.56 60.56 69.40 70.13 70.31 69.90 69.84 69.46 68.32 67.40 68.12 68.78 66.60 67.96 67.20 66.98 66.77 67.83 67.33 65.45 64.64 64.14 63.24 62.13 61.62 59.68
62.02 69.84 70.33 71.08 71.64 72.29 72.30 72.82 72.99 72.32 71.79 71.53 71.84 71.65 70.91 70.94 58.11 56.62 59.91 68.29 69.21 69.72 70.10 70.21 69.81 69.20 62.64 60.13 68.22 67.13 65.80 67.01 60.88 58.94 59.81 59.30 59.92 60.02 62.64 62.91 60.50 59.18 59.18
64.71 64.83 65.54 66.35 66.94 67.87 67.45 67.05 67.70 69.43 69.08 68.07 68.26 69.75 67.34 70.81 60.70 55.46 59.18 67.64 67.40 67.85 69.63 69.57 61.81 66.57 56.92 56.98 68.20 67.50 65.92 66.65 67.37 65.95 65.25 62.14 61.57 62.05 59.62 64.72 62.75 60.29 60.66
63.71 63.78 63.65 64.16 64.00 64.76 65.38 66.07 66.33 65.94 65.62 66.39 67.08 66.73 66.86 66.26 67.25 55.97 54.48 67.73 67.61 67.26 67.11 67.63 68.15 57.50 53.47 52.96 56.70 68.34 66.29 67.54 65.35 67.39 66.44 66.55 66.36 66.19 65.25 65.88 65.50 63.29 60.60
63.19 63.76 64.58 65.11 65.76 66.89 67.49 67.69 66.76 66.22 66.90 67.10 66.59 66.70 67.82 69.52 60.98 59.51 54.15 55.34 64.36 68.90 68.25 68.38 68.09 54.38 51.85 50.88 55.25 57.23 54.24 60.21 67.09 66.65 65.97 64.67 64.40 64.92 65.55 65.97 66.48 65.88 65.47
60.96 61.33 62.01 63.07 64.29 65.90 65.66 65.71 64.64 63.86 63.01 63.39 64.46 64.66 64.48 66.26 68.32 57.00 54.46 52.92 54.85 66.04 70.03 66.95 58.94 51.42 49.70 51.64 52.06 52.29 53.06 66.16 66.13 65.56 65.00 65.27 65.34 65.57 66.68 65.97 65.95 65.96 66.04
59.44 60.22 61.23 61.51 62.24 63.59 63.88 63.58 63.47 64.93 64.95 65.13 64.04 62.73 63.83 64.90 66.89 68.08 66.89 60.47 54.67 58.63 61.71 61.87 61.75 59.43 57.56 62.24 59.05 56.36 65.69 67.02 65.78 65.37 65.87 66.13 65.88 64.83 64.23 65.23 63.80 62.90 62.38
59.74 60.37 60.75 61.48 62.04 62.44 61.55 61.68 60.49 60.64 54.59 57.30 58.40 59.65 61.03 63.15 65.95 59.78 59.01 58.31 57.95 58.73 61.31 61.77 63.44 64.07 62.88 63.58 64.42 64.87 64.33 63.69 63.40 65.13 65.98 65.67 62.92 63.05 63.01 63.62 64.35 62.60 61.88
61.32 60.87 59.73 60.50 61.56 61.58 62.12 61.55 50.87 48.47 45.40 43.44 42.69 43.95 52.82 51.91 47.61 44.89 46.71 46.35 48.52 51.24 61.27 62.02 61.68 62.50 62.53 62.40 61.01 58.63 58.71 58.38 59.23 57.76 58.43 58.78 59.88 60.13 59.81 61.48 61.92 60.89 60.19
61.75 60.92 60.36 58.74 60.38 60.94 61.07 60.68 58.97 57.70 46.11 45.08 44.53 42.72 41.24 41.71 41.73 44.35 43.81 44.35 44.71 49.97 62.73 62.05 61.53 61.60 60.90 60.42 59.94 59.21 58.04 58.51 58.12 57.46 56.90 55.88 56.44 56.78 56.42 57.95 58.71 59.68 59.13
60.51 53.50 59.90 59.99 59.76 59.84 60.65 61.16 61.28 60.02 58.76 59.27 51.97 49.04 46.69 43.44 43.08 43.81 42.18 48.50 56.56 53.66 62.22 62.45 62.40 62.91 61.33 60.33 60.24 59.73 58.69 57.28 56.68 56.46 56.52 56.70 56.48 56.60 56.22 57.26 57.76 58.50 59.17
59.44 59.81 59.93 59.99 59.98 58.04 60.31 60.44 61.83 61.71 60.43 60.30 60.25 55.79 55.09 48.34 44.89 42.36 45.44 59.82 59.87 58.85 60.60 63.18 64.54 63.92 62.01 59.51 59.21 59.25 58.79 57.88 57.64 56.92 56.90 57.08 57.08 56.82 55.59 55.23 54.07 51.16 52.88
59.13 55.95 55.63 58.67 58.77 58.92 59.76 59.62 60.46 61.43 61.51 59.16 58.91 59.34 60.36 59.33 59.85 58.36 58.47 59.01 59.59 59.41 58.87 58.09 58.93 58.65 58.41 57.18 56.50 55.97 55.73 55.19 55.07 54.87 54.85 55.03 55.17 54.67 54.33 54.28 55.08 53.36 54.53
58.07 58.16 55.55 58.55 58.41 58.51 58.90 58.78 60.26 60.88 61.37 61.66 60.16 57.14 44.51 60.03 58.59 58.18 58.47 58.25 57.88 57.66 57.10 56.66 56.18 56.22 56.92 56.22 55.55 54.99 55.01 54.73 54.99 54.74 55.48 55.68 55.64 54.89 55.31 54.89 54.68 54.81 54.93
58.09 58.31 58.70 58.84 59.37 59.27 59.29 59.53 60.10 61.59 61.67 60.30 59.97 57.32 48.52 57.96 56.84 56.00 55.21 54.85 54.73 55.13 55.88 55.84 54.76 54.59 54.96 55.38 55.42 55.42 55.69 55.29 55.79 56.35 56.32 56.50 56.44 56.51 56.58 55.95 55.67 55.26 53.01
58.67 58.65 59.25 59.41 59.71 57.21 59.83 61.26 62.12 62.36 61.09 60.13 58.98 57.35 56.55 56.37 55.58 55.02 53.93 54.45 53.91 53.65 54.06 53.23 53.31 54.42 55.80 56.13 56.82 57.03 55.45 54.96 56.09 57.02 56.35 56.41 55.79 55.20 55.14 54.32 53.86 52.55 51.66
58.66 58.19 59.02 59.55 60.18 59.63 58.82 57.77 58.54 54.28 59.76 60.62 58.46 57.25 56.53 55.14 53.76 52.65 52.49 52.13 51.97 52.15 53.05 54.94 55.27 53.45 51.79 51.25 50.55 50.85 51.21 52.33 54.37 55.08 55.28 54.61 53.86 52.24 54.36 54.01 53.32 52.78 52.42
57.88 58.27 58.08 57.17 57.52 56.74 57.18 57.67 57.98 58.65 58.63 59.12 57.49 56.20 55.58 56.35 55.86 54.67 54.85 54.32 53.78 52.34 48.94 48.45 48.92 49.04 48.91 48.29 48.20 47.19 36.96 33.01 48.89 44.48 53.26 53.00 52.90 53.37 53.15 52.92 51.94 51.76 51.15
58.53 58.96 58.85 58.20 57.39 57.28 57.12 56.56 56.31 56.73 57.14 58.35 56.84 56.45 55.52 53.55 52.41 54.41 56.00 55.25 53.95 52.10 50.01 48.97 47.72 46.93 46.55 46.37 45.04 35.03 32.12 32.68 41.93 37.99 51.65 52.30 51.14 50.64 51.09 50.73 50.16 50.98 49.84

GFSGL_sfc_wetblb_099.txt.gz
Wetbulb
79.21 79.62 80.37 79.62 80.08 79.57 79.04 78.95 77.16 77.09 76.76 76.75 76.72 76.19 75.76 75.92 76.05 75.39 75.05 74.70 73.68 73.97 73.94 72.83 70.79 70.96 72.07 75.03 75.41 73.72 73.28 72.62 67.77 69.63 75.09 74.52 71.91 71.27 71.34 71.43 70.24 70.41 69.20
79.64 80.25 79.62 79.10 79.15 78.84 79.02 78.49 76.93 76.26 76.80 76.89 76.72 75.78 75.04 74.64 75.57 75.14 73.66 73.54 73.02 72.81 72.97 72.91 72.46 71.73 72.13 72.06 71.23 70.43 70.08 73.84 70.97 70.26 73.04 71.67 71.69 71.40 70.09 69.68 69.26 68.41 68.42
79.31 78.59 78.25 78.34 78.44 79.19 78.38 77.37 76.68 76.18 76.52 76.75 75.93 75.03 74.23 74.03 74.80 74.58 74.22 73.33 72.85 72.99 72.91 72.50 72.03 72.78 73.69 72.69 73.56 73.87 73.70 74.27 74.03 70.94 71.70 69.25 66.71 66.91 65.83 65.20 65.59 65.95 65.61
77.64 77.76 78.17 78.09 78.66 77.98 77.43 76.44 75.59 76.60 76.64 76.37 75.42 75.04 74.32 73.97 73.77 73.78 73.82 74.33 73.11 72.91 73.03 72.98 72.74 72.57 72.88 73.17 73.67 73.25 73.67 72.91 72.68 71.28 70.82 66.44 66.00 64.96 64.49 62.82 62.08 65.38 66.22
76.25 76.17 77.95 78.49 78.20 76.30 75.42 74.92 75.03 75.89 76.41 75.90 75.00 74.60 74.39 73.67 72.76 73.00 73.19 73.04 73.43 72.60 72.59 72.64 72.62 72.90 69.73 71.90 71.82 73.60 73.84 71.94 70.11 69.87 68.46 66.11 64.09 62.33 61.03 62.20 62.28 63.20 65.50
70.71 72.06 73.44 75.06 75.13 74.74 75.19 74.71 77.21 76.91 75.84 75.52 74.55 73.97 73.69 72.68 65.26 66.91 69.72 72.37 72.49 72.52 71.59 71.91 72.16 70.45 69.30 67.01 66.63 66.64 68.39 72.02 70.36 68.30 66.48 64.59 64.38 63.63 62.70 61.77 62.57 61.44 60.25
69.48 69.88 69.56 72.37 72.18 75.00 76.24 76.51 76.04 76.75 76.69 75.32 74.45 73.90 73.36 73.63 62.99 63.43 65.38 71.44 71.82 71.60 72.25 71.56 70.94 70.18 69.95 71.38 65.44 64.18 64.86 65.95 66.84 71.20 68.42 68.39 67.98 65.38 63.69 62.25 63.17 62.53 63.07
71.27 71.44 69.27 71.08 72.60 75.96 76.65 76.30 76.94 76.63 76.28 75.63 74.49 74.54 74.24 73.52 61.05 60.17 62.77 71.15 71.39 71.53 71.69 71.79 72.09 71.72 72.11 70.92 70.43 69.10 68.64 68.65 69.23 69.19 70.42 71.24 71.58 69.47 66.56 65.25 64.62 64.80 65.18
69.00 69.76 70.41 71.86 73.73 74.73 74.91 75.49 75.99 75.71 75.24 75.35 75.71 75.33 74.45 74.92 58.64 58.20 63.37 70.77 70.51 70.89 71.20 71.59 72.12 72.15 67.01 61.85 69.52 69.06 70.28 69.25 63.86 62.90 62.97 64.14 63.98 63.65 65.89 65.86 62.78 61.66 61.00
67.06 67.36 68.31 69.23 72.21 73.71 74.92 75.29 77.09 75.52 74.63 74.22 74.18 74.74 70.12 74.31 58.26 56.01 62.36 71.05 70.35 70.14 72.96 73.20 63.81 68.44 59.91 58.35 69.48 68.61 69.37 68.99 68.83 68.13 66.99 64.07 64.38 65.40 62.20 66.84 64.20 61.15 61.67
67.05 67.46 66.10 66.22 66.33 66.60 71.13 73.96 73.63 74.89 73.94 73.91 73.58 74.22 73.83 72.08 72.65 54.57 54.63 71.22 70.97 70.45 70.55 70.48 71.15 59.10 56.89 54.72 58.24 70.46 68.95 70.29 67.90 69.09 68.31 67.38 67.38 67.65 66.30 67.06 68.38 66.11 63.38
66.04 65.91 65.93 66.15 67.36 66.91 63.76 64.15 69.43 70.78 70.60 70.29 71.60 70.33 71.50 73.37 62.88 56.61 54.52 56.19 65.29 70.26 70.60 70.94 70.85 56.20 53.81 52.93 56.75 59.90 57.07 61.51 70.67 68.63 67.68 66.66 66.30 66.57 66.88 67.72 68.93 69.09 68.85
63.03 63.61 63.96 64.03 64.57 66.34 66.02 64.25 64.52 68.67 67.80 68.15 67.61 67.00 67.72 69.21 70.70 56.37 53.56 54.36 55.54 65.10 69.33 65.99 56.58 53.41 51.56 52.86 53.97 56.60 55.01 67.51 68.82 67.70 67.34 66.44 67.59 68.07 69.40 69.45 68.68 70.08 69.99
62.18 62.02 62.41 62.95 62.73 66.31 65.55 65.50 66.74 64.60 65.13 65.39 64.77 64.41 65.00 65.66 66.64 67.85 63.48 64.03 58.09 60.49 62.78 66.59 63.72 59.69 57.11 63.31 62.09 59.76 66.12 67.95 68.59 67.45 67.63 68.43 68.65 68.01 66.16 67.85 66.21 66.54 65.19
64.05 63.37 63.06 63.60 65.26 65.09 65.54 63.57 63.68 64.63 61.06 63.62 63.06 63.13 62.34 62.38 62.83 52.88 52.02 58.03 60.68 57.54 55.37 64.48 64.35 65.22 64.40 63.21 62.97 63.71 64.43 66.98 67.79 68.41 70.30 69.55 69.50 69.44 66.58 66.30 65.17 63.67 62.73
64.30 63.31 62.63 61.77 62.77 63.64 65.61 63.67 54.34 54.15 50.19 48.61 46.80 53.47 61.67 53.67 48.81 45.63 43.72 42.98 42.58 44.17 57.35 61.55 62.38 61.39 61.53 62.55 63.04 63.94 64.41 64.60 68.91 69.32 69.54 69.53 68.97 67.67 64.86 64.12 64.25 62.81 61.75
63.23 62.88 61.47 60.33 63.17 62.96 63.51 63.35 63.55 54.84 47.07 45.51 44.97 44.93 43.07 48.37 44.26 43.17 42.25 41.11 41.18 44.48 56.94 64.13 63.39 62.90 63.66 63.29 64.07 64.41 62.76 63.42 62.78 63.19 63.81 63.10 62.40 61.95 61.29 61.43 61.27 61.27 61.25
62.70 57.15 61.71 61.83 61.94 61.49 61.80 61.46 61.59 62.13 62.50 63.20 48.65 49.09 44.34 44.77 43.16 43.17 41.89 46.13 59.09 52.55 61.65 64.27 65.03 65.31 65.38 64.58 65.23 67.09 65.93 63.17 61.40 61.06 60.13 59.73 59.18 59.04 58.48 59.18 60.01 59.44 57.70
61.48 61.42 61.25 61.17 60.31 59.69 61.37 60.93 60.63 61.14 62.55 63.39 64.12 53.01 53.57 46.80 44.62 45.69 44.08 58.70 58.70 60.81 64.00 63.37 62.46 62.93 64.19 64.62 63.77 63.38 63.29 60.77 60.45 60.61 59.67 58.54 57.65 56.59 56.13 56.85 56.87 52.96 54.57
61.25 59.97 56.97 59.90 59.34 60.27 60.63 60.62 60.39 60.60 60.70 62.14 62.98 63.15 63.45 61.79 62.46 61.90 60.09 58.39 58.54 59.72 60.55 59.71 59.69 59.16 58.26 60.61 62.97 60.88 57.94 57.55 57.19 57.21 57.37 57.35 58.12 57.55 56.19 55.48 55.50 54.96 54.82
61.01 60.98 60.13 60.22 60.25 60.63 60.99 61.06 60.83 60.83 60.37 62.49 63.64 59.45 46.40 60.24 59.77 59.63 57.57 58.31 57.93 56.65 57.37 57.77 59.00 58.93 58.43 58.77 58.70 57.31 57.41 57.63 57.69 56.85 56.35 56.05 57.29 56.07 55.91 55.87 55.65 55.91 55.53
61.11 61.32 61.19 61.19 61.49 61.15 61.15 61.67 61.48 60.90 61.11 62.77 63.47 60.42 48.39 61.06 58.66 56.93 56.23 55.49 55.69 57.38 58.51 57.63 57.63 57.93 57.65 57.25 56.73 56.65 56.49 55.83 56.43 57.05 56.71 56.69 56.53 56.59 56.19 56.59 56.82 56.66 55.94
61.36 59.86 59.64 61.23 60.99 58.89 60.91 60.92 61.15 61.68 62.65 63.29 63.15 61.99 61.70 60.46 58.54 56.63 55.97 55.44 54.72 55.43 57.48 59.12 59.87 59.71 59.13 58.83 58.84 58.39 57.22 56.97 57.79 58.87 58.25 58.22 57.66 57.91 57.63 56.39 56.10 55.67 54.99
62.17 60.77 59.82 60.94 60.96 61.10 60.61 60.54 61.11 56.10 61.22 63.06 63.31 60.43 61.06 60.40 58.01 57.10 57.06 58.45 59.08 56.34 56.34 58.69 59.49 59.33 59.90 60.61 61.13 60.81 60.82 60.65 60.72 59.56 59.51 58.74 58.50 56.24 57.08 56.55 56.21 54.67 52.66
60.25 59.64 60.92 61.23 60.69 60.04 58.97 58.80 59.14 59.95 60.70 61.71 61.49 60.82 60.75 60.46 60.26 60.58 60.40 60.37 60.85 57.98 54.24 52.38 56.55 57.23 56.28 56.90 57.27 56.83 40.65 34.92 53.47 45.28 59.98 59.29 58.12 57.57 56.26 54.94 54.17 53.59 53.38
60.29 60.30 59.98 59.84 60.63 60.11 58.91 59.19 58.95 58.91 59.29 60.21 61.31 61.94 62.65 61.31 60.86 61.89 60.47 60.67 59.05 57.97 56.41 55.95 55.60 55.86 55.48 53.92 49.46 38.48 34.76 34.19 47.00 37.15 54.46 56.61 55.71 55.39 55.47 55.28 54.70 53.69 53.46

GFSGL_sfc_wetblb_102.txt.gz
Wetbulb
78.79 78.87 78.84 78.18 79.55 79.07 79.58 78.39 78.93 77.18 76.63 75.77 75.53 75.74 75.95 75.99 76.13 75.99 75.34 74.59 73.86 73.35 73.33 71.94 69.91 70.80 71.04 70.99 70.81 70.61 70.17 70.01 67.37 68.68 70.36 71.11 69.81 70.07 70.39 70.99 68.67 68.59 66.18
79.07 78.65 78.65 79.32 79.22 78.48 79.30 79.11 78.77 76.34 76.54 77.00 77.35 76.92 76.43 75.57 75.64 75.00 74.06 73.59 73.12 72.62 72.79 72.57 71.17 71.34 70.61 70.71 70.63 69.08 69.97 69.85 68.18 65.77 68.21 69.12 70.43 70.75 70.59 69.64 69.06 68.33 68.56
79.03 78.10 77.66 78.81 78.75 78.40 78.83 78.85 77.83 76.23 76.40 76.23 76.82 76.09 75.03 75.30 74.74 74.69 74.57 73.83 73.13 73.02 73.05 72.19 71.61 71.23 70.82 70.83 70.78 70.24 71.05 70.69 70.99 68.94 68.27 69.46 67.70 68.09 67.07 66.05 66.67 66.87 66.90
76.83 76.68 76.70 78.04 78.30 78.69 78.83 78.60 76.95 75.82 75.90 75.99 76.57 75.85 75.44 74.95 74.85 74.05 74.14 73.88 73.53 73.37 73.43 73.34 72.32 71.67 71.41 71.73 71.52 71.66 71.53 71.21 70.58 69.84 69.06 67.46 66.38 65.35 65.14 63.04 62.22 64.18 64.15
75.60 75.10 74.83 75.93 76.51 77.23 77.59 76.68 75.80 75.34 75.89 76.44 76.07 75.56 75.09 74.45 73.10 73.79 73.52 73.50 73.14 72.81 73.09 72.89 72.67 72.18 70.84 70.31 70.70 70.61 70.42 69.66 69.03 68.43 68.11 66.83 64.95 62.34 61.73 62.52 62.34 63.11 64.54
67.14 64.51 64.12 64.54 66.25 67.48 73.57 73.80 74.02 75.46 76.25 76.40 75.03 74.56 73.89 72.75 67.40 68.79 71.61 72.59 73.14 72.83 72.03 72.10 72.57 69.88 69.56 68.50 67.96 68.26 70.48 69.58 68.06 67.46 67.52 65.32 64.66 63.47 63.22 62.09 61.95 61.11 60.89
66.96 66.57 65.77 64.34 64.72 64.31 65.19 70.45 73.99 74.71 76.63 75.84 75.24 74.70 73.98 74.42 63.67 64.26 65.98 72.94 73.45 72.49 72.49 72.54 71.47 70.36 69.50 69.82 65.36 65.32 65.49 65.94 67.40 69.55 68.21 67.45 66.41 65.33 63.89 62.07 62.35 61.80 62.00
67.79 66.58 65.50 64.38 65.29 65.23 64.79 65.76 71.35 73.49 74.89 75.07 75.08 75.06 74.89 74.34 61.93 61.10 63.61 72.38 71.81 72.41 72.46 73.03 71.64 70.79 72.00 71.27 70.04 68.58 68.15 67.56 66.40 67.09 68.84 69.70 70.12 68.86 65.07 64.07 63.50 62.84 64.49
65.56 66.63 67.52 67.75 66.87 66.11 65.51 68.71 71.67 72.15 72.96 74.61 75.04 74.88 74.44 75.04 58.96 59.05 63.57 70.85 70.42 71.11 71.49 72.29 72.52 71.82 67.08 63.10 70.41 69.39 68.63 68.65 64.21 64.40 65.36 64.01 64.70 63.98 65.29 65.27 62.81 61.81 61.52
65.85 65.92 67.09 67.14 67.57 65.34 66.11 70.06 71.27 71.63 71.82 74.27 74.16 75.26 70.13 74.94 57.77 56.96 62.74 71.13 69.86 69.66 71.18 71.45 64.58 67.63 62.88 57.83 68.74 69.15 67.70 68.33 68.52 66.15 65.16 62.83 64.24 64.55 62.57 66.31 64.65 61.92 61.46
66.25 65.98 66.40 67.02 67.03 65.78 65.35 64.71 65.89 65.33 68.41 70.27 71.31 72.79 72.34 71.90 69.77 55.82 54.59 70.14 70.77 71.02 70.56 70.05 70.35 59.37 56.42 54.44 59.09 69.47 67.45 68.22 67.48 68.56 67.42 67.01 66.84 67.35 66.02 66.91 66.16 64.12 62.02
66.14 65.81 65.73 66.03 66.29 66.82 66.79 66.14 66.69 66.74 63.46 61.37 66.65 68.83 70.82 72.08 62.89 55.34 53.76 56.24 65.33 70.37 69.96 71.13 69.45 55.27 53.13 51.10 53.23 58.81 57.60 61.10 68.25 68.50 67.36 66.91 65.96 65.53 66.34 66.62 66.63 65.88 65.77
64.25 64.44 64.97 65.76 66.54 66.81 66.05 65.92 66.66 66.94 63.72 64.31 64.70 65.20 66.58 67.82 68.20 55.54 53.58 53.38 55.25 61.28 68.40 63.64 55.94 54.03 54.71 54.32 52.10 54.06 53.77 63.90 66.44 66.47 66.13 66.19 66.49 66.75 67.42 66.53 66.57 66.91 67.87
64.85 64.83 64.81 64.69 63.68 64.06 62.76 63.13 63.59 64.33 63.71 64.16 63.95 63.58 63.95 65.32 65.68 63.34 62.65 62.67 58.80 62.35 60.86 64.36 63.35 59.42 56.58 60.09 60.52 58.90 60.87 64.95 66.13 66.11 66.40 67.43 68.26 67.58 66.49 66.64 65.87 66.08 65.47
65.48 65.31 65.12 64.17 64.76 65.60 64.95 62.92 63.16 64.55 60.48 62.17 61.67 62.85 62.60 62.37 60.83 52.13 52.74 58.56 59.04 57.38 52.48 59.33 63.40 64.19 64.65 64.98 65.98 65.84 66.02 64.95 64.05 66.20 66.36 65.96 65.71 66.54 66.34 67.08 66.13 65.30 63.99
63.72 62.58 62.53 62.76 63.16 63.79 64.52 65.17 54.78 53.24 49.72 47.60 46.69 53.81 62.39 54.69 50.22 45.66 43.25 42.70 42.67 43.20 49.99 56.78 61.99 62.81 61.96 62.33 62.77 62.70 63.49 62.86 63.79 64.31 64.44 64.18 64.31 64.47 65.24 65.38 65.35 64.58 63.28
62.96 63.93 62.32 61.15 62.89 63.98 63.22 63.15 62.60 59.62 48.12 45.78 45.06 45.06 43.61 44.56 42.70 42.70 42.16 41.58 41.60 42.19 53.71 61.49 63.02 63.06 63.07 64.03 63.61 64.69 63.14 63.59 64.69 64.90 63.70 62.34 61.27 61.07 60.77 61.61 62.29 62.64 61.87
63.85 57.34 61.92 62.35 61.59 61.50 62.09 62.35 60.70 58.63 60.22 60.80 50.81 47.90 45.70 43.61 42.88 42.14 42.70 46.71 58.81 50.51 57.59 61.05 62.63 63.18 63.55 63.79 64.95 64.69 64.13 63.08 63.94 61.99 61.27 60.91 60.41 59.82 58.78 58.03 58.73 60.14 61.19
61.15 60.85 61.64 61.28 60.70 59.08 59.88 60.94 60.32 59.08 59.64 62.85 62.76 51.06 49.60 44.52 41.93 44.15 47.05 58.29 58.16 59.10 60.34 60.02 61.14 61.16 60.44 62.48 63.43 64.15 65.34 63.38 63.06 62.65 61.43 60.32 59.10 59.13 57.43 57.75 56.18 52.31 54.23
61.71 58.98 58.59 60.96 60.19 60.43 60.07 60.16 60.21 61.71 63.11 60.94 62.79 63.04 62.04 59.50 61.14 59.58 58.33 58.87 57.39 57.10 57.71 57.71 58.05 57.93 57.97 57.99 60.28 61.61 59.12 58.39 58.39 58.03 57.83 57.45 57.95 57.67 57.10 56.14 56.10 55.21 54.69
60.75 61.02 58.90 60.19 60.66 61.52 61.13 61.89 61.45 60.65 60.50 62.84 61.65 56.74 47.02 60.73 59.17 57.84 56.84 57.36 58.40 58.48 57.86 57.31 57.45 57.43 56.82 57.02 57.37 56.82 56.64 56.48 56.34 56.34 56.18 56.34 56.64 55.78 55.94 56.04 55.20 56.02 55.56
60.19 60.73 60.63 59.94 61.25 61.36 60.58 61.07 61.33 61.39 62.09 62.16 61.12 57.51 49.68 59.81 58.45 58.21 57.28 58.15 57.62 58.13 60.17 60.14 58.50 57.94 57.41 56.92 56.72 56.30 56.02 55.88 56.42 56.40 56.26 56.18 56.34 56.12 56.20 56.22 56.04 55.58 54.89
59.96 60.08 59.98 60.50 61.40 58.93 60.69 60.72 60.89 59.88 61.27 62.19 61.82 61.23 59.82 59.10 57.33 56.54 57.04 58.53 58.91 58.55 59.49 60.75 59.34 57.83 58.13 57.95 58.04 57.08 56.20 56.32 56.78 57.30 56.78 56.80 56.50 56.18 56.22 55.59 55.60 55.87 55.75
60.01 59.94 60.13 59.69 58.93 59.88 58.74 59.71 60.45 56.23 59.58 60.53 61.45 62.37 59.04 59.68 58.11 57.86 58.55 59.53 59.33 58.58 58.61 58.59 57.83 58.05 58.59 58.65 58.98 58.98 56.35 58.20 58.91 58.50 58.34 57.00 56.92 54.07 55.90 55.81 55.85 55.32 52.66
60.08 59.56 59.41 59.49 59.47 59.60 59.54 59.26 58.89 59.16 59.88 61.29 60.98 60.85 59.34 59.91 59.33 59.17 59.50 60.05 60.06 58.59 57.37 58.08 58.13 57.32 56.52 56.59 55.34 52.23 37.94 34.10 47.96 45.77 58.67 59.32 58.27 58.20 56.19 56.33 54.27 51.87 52.05
57.73 59.93 59.07 60.55 59.50 59.65 59.50 59.42 59.33 59.26 59.38 60.30 61.04 61.58 61.60 61.33 61.35 60.75 59.98 60.91 59.50 58.14 57.47 57.01 56.82 55.92 53.64 50.74 46.43 37.55 34.52 33.10 41.11 35.60 49.03 57.41 56.28 55.62 54.42 54.65 54.56 53.05 52.46

GFSGL_sfc_wetblb_105.txt.gz
Wetbulb
75.73 75.80 75.38 73.99 75.78 76.25 74.75 75.43 73.79 74.15 72.81 71.96 71.45 71.93 71.86 71.81 73.25 72.79 72.23 71.77 71.40 70.48 70.63 69.37 68.85 69.73 69.40 69.06 68.47 68.40 67.07 67.05 64.16 65.81 67.30 68.49 67.26 67.89 68.25 68.09 67.62 65.27 64.96
76.18 76.09 76.11 75.26 75.49 76.02 76.28 75.98 75.10 74.71 73.03 71.85 71.67 71.52 72.22 73.22 72.67 72.33 71.95 71.97 70.74 70.21 70.16 69.71 68.67 69.78 68.11 68.43 68.47 67.89 67.64 67.75 66.60 64.74 65.90 66.85 67.77 68.00 67.77 67.07 66.60 67.66 65.00
76.55 76.13 75.96 76.20 74.37 76.16 75.87 74.90 75.45 72.73 72.17 72.81 72.49 72.26 72.15 72.77 72.57 72.35 71.85 70.84 70.69 70.49 70.04 69.55 68.63 68.47 67.70 68.11 67.52 67.43 67.25 67.41 66.78 65.27 65.24 66.42 65.73 66.68 65.89 64.83 64.20 64.35 66.51
74.01 72.50 70.51 68.34 66.80 70.68 72.06 72.95 74.25 72.62 72.31 72.85 72.77 72.96 72.09 71.40 71.71 71.67 71.27 70.63 70.11 70.15 70.06 69.99 69.48 68.94 68.31 68.45 68.63 68.07 68.02 67.64 67.30 66.46 65.03 64.78 64.72 64.92 64.74 62.99 62.69 64.10 64.24
64.77 64.81 64.08 64.88 65.85 65.37 65.28 66.03 66.27 72.96 72.59 73.09 73.22 72.65 71.79 71.43 72.42 70.86 70.92 70.30 69.55 69.21 69.65 69.95 69.74 69.91 69.14 68.85 69.12 68.31 67.98 67.46 66.73 66.59 64.83 64.80 63.42 62.15 62.27 62.83 63.17 62.63 63.19
65.87 65.60 65.26 65.06 65.04 65.50 65.01 64.68 64.63 64.24 71.01 73.16 72.82 71.78 70.90 71.86 67.23 67.66 70.58 69.51 69.14 68.58 68.14 68.99 68.59 69.41 68.55 66.91 68.14 68.51 68.47 67.05 65.61 65.37 64.25 63.54 62.45 62.43 62.75 62.48 62.61 61.20 60.10
66.28 65.56 64.46 64.74 64.83 64.85 65.29 65.74 65.80 63.17 63.86 71.74 71.75 71.10 70.19 69.84 64.56 64.06 67.90 69.34 68.99 68.98 68.47 68.37 68.75 70.47 67.73 67.64 65.74 66.43 66.83 66.69 66.87 66.54 63.91 63.65 62.45 63.92 63.01 62.04 62.18 61.85 61.56
65.86 64.89 64.06 63.24 64.00 63.45 63.42 63.42 63.60 63.80 66.15 69.50 70.08 70.46 70.34 70.41 61.91 61.46 64.12 67.02 67.02 67.90 68.57 68.64 67.84 66.35 67.06 66.97 65.63 64.48 64.91 64.73 64.69 66.16 66.52 66.49 65.55 64.82 63.84 63.28 62.85 62.55 63.26
66.00 66.65 65.75 64.76 64.47 63.30 62.32 62.05 62.73 64.31 65.09 69.16 70.85 70.28 69.36 69.52 59.41 59.26 62.11 66.13 65.70 65.97 67.27 67.65 67.63 67.58 65.01 63.26 66.85 64.88 64.63 64.83 63.11 61.88 63.43 64.24 64.34 62.73 63.51 63.25 61.98 61.40 60.60
62.81 63.91 64.76 65.81 64.08 63.55 63.54 64.17 67.39 68.38 68.99 69.60 66.07 68.02 67.48 69.18 59.00 58.66 61.31 66.26 64.90 65.58 66.49 67.04 64.21 65.57 62.39 59.19 64.54 65.62 64.54 64.64 65.16 62.19 61.45 61.12 62.77 62.31 61.89 64.18 63.08 61.43 61.20
63.20 63.32 63.02 63.76 63.37 63.19 62.64 62.71 63.68 63.29 62.53 63.35 64.66 65.52 66.13 65.11 66.60 57.84 57.84 67.01 67.55 67.08 66.36 66.79 66.96 58.81 55.54 54.21 55.68 66.10 64.88 64.68 64.42 63.49 63.41 62.85 62.65 63.23 64.63 64.12 63.96 63.05 61.72
61.39 61.45 62.11 62.68 63.82 63.76 62.78 63.12 63.82 63.58 63.02 61.42 61.72 63.52 64.61 65.90 58.55 57.46 55.30 55.49 57.58 64.40 67.17 67.86 63.49 55.18 55.10 52.64 53.86 55.67 54.65 58.06 66.36 65.58 64.16 63.70 63.70 63.95 64.31 65.09 65.19 64.30 64.56
60.33 59.92 60.46 61.33 62.47 62.17 61.53 62.40 62.00 62.02 62.38 61.25 62.44 62.50 62.36 64.83 61.70 55.67 55.49 54.66 56.62 58.98 61.72 60.32 55.30 54.40 52.59 54.63 53.35 54.13 53.88 61.48 63.91 64.95 65.47 65.38 65.36 65.40 65.30 64.33 65.16 64.54 63.48
60.04 59.40 59.79 60.28 60.31 61.44 60.17 60.20 59.97 59.21 59.74 60.32 59.73 59.31 60.56 60.81 58.90 58.74 58.14 57.72 56.63 57.93 56.84 56.53 57.64 56.82 58.43 60.47 58.84 55.89 58.11 60.10 61.65 63.09 64.36 64.92 64.79 64.52 63.59 64.47 63.42 63.77 63.63
59.43 59.71 58.38 58.12 58.95 59.30 60.97 59.48 59.97 57.33 57.03 58.81 58.96 59.57 58.41 57.75 56.69 49.53 50.40 53.70 53.76 52.85 49.01 54.05 55.41 59.19 60.46 61.48 60.78 61.95 62.16 61.34 61.50 62.19 64.07 65.29 65.36 64.87 64.51 64.48 64.56 63.65 62.48
57.33 58.10 58.12 56.66 56.50 57.60 57.38 58.26 52.71 53.62 48.05 47.15 46.42 52.36 57.54 53.09 43.49 42.60 42.80 42.43 41.87 42.33 47.98 52.04 55.33 59.21 59.83 60.07 60.63 61.27 60.15 61.19 62.44 62.46 62.78 63.21 63.47 64.29 63.85 63.61 63.94 63.66 63.15
57.27 57.43 56.92 56.63 57.24 56.57 57.16 57.61 56.07 54.90 47.15 46.24 45.33 44.25 43.52 46.60 42.80 42.43 42.80 41.89 42.43 43.71 50.65 56.90 59.09 60.08 61.56 60.90 61.40 61.46 61.80 61.96 62.01 62.89 62.75 62.62 62.32 61.04 61.04 61.27 61.43 61.56 62.09
56.91 55.52 55.32 56.91 56.51 54.50 54.45 54.11 55.15 53.54 54.24 57.57 48.13 47.51 44.25 41.53 43.16 43.52 43.52 46.04 55.13 48.04 55.75 59.51 60.30 60.84 61.02 61.54 62.39 62.97 62.73 62.25 62.67 62.47 61.70 61.34 60.44 58.99 59.05 59.05 59.23 59.75 60.32
56.87 56.53 56.33 56.04 54.94 54.08 53.30 53.83 54.81 55.34 55.27 55.64 55.98 48.94 46.95 42.61 43.16 44.25 43.70 55.65 56.55 56.72 57.66 57.84 57.90 57.92 58.12 58.47 59.51 61.84 61.58 62.27 61.38 60.84 60.28 59.93 59.93 58.65 56.69 56.23 55.71 52.40 54.02
56.76 57.03 56.11 55.71 54.93 54.99 55.33 55.45 55.19 56.55 55.12 56.86 59.34 57.70 57.10 53.14 55.57 54.61 54.25 56.64 56.55 56.53 56.23 56.61 56.92 56.78 56.80 57.40 56.86 58.12 58.28 57.58 57.92 57.74 57.56 57.74 57.94 57.34 56.82 55.89 55.65 55.15 54.77
55.21 55.22 57.61 57.57 57.91 58.12 57.87 57.42 57.54 58.15 59.56 58.07 56.82 53.96 47.87 57.41 55.71 54.58 55.23 55.27 55.37 56.96 57.00 56.33 56.53 56.65 56.47 56.43 56.05 56.09 56.05 55.89 55.89 55.73 55.77 56.11 56.09 55.39 55.73 55.69 55.49 55.07 54.41
54.83 55.06 56.01 55.77 56.91 56.88 56.18 56.43 58.00 58.10 59.55 58.10 55.22 52.76 47.89 56.22 56.46 55.56 55.84 55.73 55.27 55.61 57.78 55.71 56.51 56.11 54.82 53.82 53.60 54.89 55.65 55.67 55.89 55.85 56.03 56.13 56.07 56.03 56.05 55.31 54.63 54.41 54.17
55.37 55.57 54.94 55.39 55.54 55.51 56.17 56.23 56.06 55.72 56.10 57.44 57.58 56.59 56.27 54.89 53.95 54.84 55.32 55.42 55.28 54.80 55.30 56.40 56.06 56.84 57.08 57.12 56.94 56.35 55.69 55.47 55.59 56.27 55.91 55.49 55.39 55.43 55.47 55.05 55.05 54.31 53.94
54.49 56.12 55.10 54.86 55.45 55.13 55.13 55.18 55.46 53.30 55.72 57.51 57.71 56.56 56.36 54.86 54.23 54.58 55.08 55.70 55.02 53.52 52.90 53.36 54.67 55.66 55.58 56.06 55.30 50.88 53.08 55.29 55.92 55.54 54.72 55.73 54.67 53.14 54.75 54.89 54.87 54.24 52.18
53.20 53.97 54.36 54.64 54.71 54.46 54.55 54.28 54.21 54.47 54.81 56.72 57.37 57.05 57.02 57.11 56.47 55.76 55.84 55.99 55.84 53.55 52.48 52.31 51.93 50.37 49.90 49.50 47.76 44.97 36.63 33.61 43.91 43.75 55.76 55.30 55.01 54.57 53.16 52.31 51.06 49.00 47.78
53.13 53.44 52.01 52.41 54.50 54.73 55.02 54.53 54.33 55.04 55.02 55.66 56.31 56.47 56.16 56.09 57.41 57.63 57.23 57.89 55.67 53.47 52.57 51.85 51.02 48.54 47.14 45.09 42.94 37.43 34.01 32.81 38.58 34.66 44.09 53.18 53.91 52.74 52.61 51.21 48.60 47.35 46.89

GFSGL_sfc_wetblb_111.txt.gz
Wetbulb
68.83 73.38 72.61 72.25 72.30 71.93 71.48 71.54 70.57 71.02 70.72 71.64 72.22 71.59 70.63 69.66 68.40 67.32 66.87 67.34 68.11 68.65 69.17 68.81 68.31 67.72 67.68 67.02 67.29 66.91 66.00 64.42 64.02 63.18 65.08 66.37 67.23 68.29 68.74 70.05 69.26 67.95 67.47
67.85 71.07 73.18 72.70 72.90 72.20 72.00 71.88 73.01 71.46 71.75 71.97 71.99 71.35 70.57 69.52 68.92 68.49 68.49 69.61 69.15 68.99 69.21 68.67 68.67 68.51 66.82 66.75 67.27 67.02 65.39 62.47 61.81 60.48 62.82 64.10 65.71 67.09 67.55 67.90 67.27 67.09 66.11
66.78 71.37 73.12 72.99 72.37 72.57 72.65 72.54 71.50 72.09 72.12 71.99 71.22 70.68 70.23 69.63 69.28 69.77 69.75 69.86 70.12 70.00 69.37 68.60 68.81 66.95 66.45 66.14 66.98 66.50 65.98 64.99 64.88 63.89 62.07 64.02 65.37 66.70 66.14 66.14 65.96 65.73 65.69
67.25 70.12 70.23 66.61 67.90 67.13 67.50 69.69 71.85 71.82 71.33 70.58 70.18 69.61 69.90 69.37 69.60 70.02 70.45 70.30 69.85 69.62 69.39 69.01 68.65 67.81 67.21 66.39 65.89 65.73 65.25 65.89 65.07 65.21 62.25 63.99 64.99 65.71 66.25 65.03 64.39 65.46 65.07
65.43 65.76 65.49 66.06 66.17 66.78 66.80 66.60 67.16 67.45 69.85 70.36 69.30 68.99 69.62 70.13 71.42 70.59 70.59 70.25 69.64 68.92 68.81 68.83 68.60 68.74 67.97 66.87 66.64 65.51 64.80 64.17 62.92 62.76 62.76 63.64 63.94 63.44 64.15 64.53 64.35 64.44 64.67
64.12 64.34 65.22 65.48 65.60 65.83 65.63 66.33 65.35 64.95 65.96 67.18 67.12 67.03 67.48 69.83 64.40 63.51 68.56 70.07 69.87 68.74 68.04 67.84 68.24 68.09 67.05 65.25 65.84 65.57 66.24 64.81 63.65 62.86 62.75 64.22 64.59 63.76 63.62 64.28 63.94 62.38 61.59
63.17 63.49 63.66 63.92 64.05 64.36 64.82 64.68 64.28 63.40 64.75 66.01 67.07 67.77 67.91 67.70 61.78 61.36 63.60 69.78 69.46 68.92 68.18 67.46 67.30 69.37 66.94 67.16 64.17 63.91 64.27 64.56 65.18 65.77 63.46 64.91 63.37 62.60 62.99 63.02 63.22 62.19 61.56
64.02 63.00 62.62 62.71 62.37 62.83 64.54 64.84 64.79 64.65 64.67 65.01 65.70 66.02 65.91 66.74 61.04 58.99 61.45 67.00 69.14 68.24 68.40 67.37 66.40 66.87 66.87 66.92 66.31 64.77 64.84 65.27 65.51 65.97 65.79 65.55 65.07 64.15 64.06 63.01 63.15 63.25 62.44
63.06 63.46 64.99 64.45 62.59 61.99 61.74 62.30 62.49 62.11 62.43 63.92 65.27 65.85 64.81 65.46 61.37 58.55 60.11 65.24 67.82 67.32 67.66 67.46 67.05 66.65 63.68 60.66 65.61 64.42 63.97 64.12 63.14 61.47 62.23 62.04 61.30 60.49 62.83 61.81 61.85 61.05 59.33
59.93 60.98 61.55 62.86 63.17 62.64 62.73 62.15 63.14 64.54 65.42 64.96 64.92 65.39 64.42 65.28 55.94 54.85 60.22 64.94 64.31 64.99 64.57 65.35 62.20 65.44 61.09 57.20 64.58 64.33 62.83 63.96 63.79 63.38 61.75 60.56 59.74 60.46 60.26 64.38 63.03 61.94 59.90
59.03 59.39 59.51 59.49 59.90 60.32 60.72 61.43 61.66 61.57 61.86 64.74 65.01 64.78 65.26 64.06 60.48 53.94 55.57 64.56 64.80 63.97 63.72 63.95 64.70 59.52 56.62 54.25 55.53 64.23 63.52 64.24 62.99 63.43 63.08 62.24 61.37 61.52 62.62 63.11 63.62 63.77 62.01
57.75 58.15 58.51 58.90 59.02 58.69 57.98 58.86 59.59 60.42 61.77 63.02 63.54 62.63 62.31 61.95 56.12 55.03 53.40 56.48 60.29 64.24 64.67 65.62 63.08 53.76 52.13 52.49 52.63 55.37 54.13 57.49 62.88 62.59 61.95 62.07 61.96 62.58 63.15 63.92 64.24 64.20 65.23
57.35 56.48 57.64 57.55 58.68 58.44 57.18 55.94 57.89 58.53 58.85 60.46 62.52 61.59 60.73 60.87 59.38 51.93 51.77 54.12 56.30 62.24 63.60 60.47 54.30 51.04 50.50 53.58 53.76 53.76 53.72 59.43 61.28 62.39 63.61 64.13 63.37 62.94 62.37 62.75 64.93 64.14 63.78
56.04 55.47 54.64 54.52 55.21 56.84 57.99 57.16 55.03 56.06 56.92 59.25 60.64 58.09 56.62 56.90 57.34 57.20 58.29 57.29 55.28 58.23 57.51 57.59 55.43 53.66 52.82 55.19 55.94 58.09 58.37 61.00 62.61 62.51 62.96 64.00 62.93 62.01 62.52 63.31 63.54 63.53 62.48
54.83 55.07 53.65 53.36 53.98 54.69 54.57 55.80 56.02 53.55 53.17 55.66 55.84 56.00 54.30 53.90 53.47 47.20 49.64 54.56 53.64 50.44 51.98 54.35 55.56 55.60 55.82 57.38 60.08 60.71 59.82 58.69 58.37 58.61 58.65 59.01 59.78 61.39 62.87 64.50 63.71 63.71 62.26
53.99 53.75 52.65 52.47 53.32 53.95 53.86 52.46 50.19 48.19 45.19 43.23 43.97 51.10 50.29 46.24 43.79 42.16 41.80 41.98 42.52 43.94 52.54 54.73 55.66 56.14 56.02 55.74 56.40 58.05 60.26 60.60 60.32 61.63 61.81 61.79 61.00 60.64 60.90 61.74 63.81 63.34 62.53
51.89 52.34 52.23 52.11 53.24 51.64 51.51 50.59 50.37 50.93 46.91 43.55 42.12 42.88 45.24 45.97 42.88 43.07 42.70 42.16 42.34 44.88 56.14 57.35 58.01 58.53 59.10 59.46 59.78 59.58 58.21 58.75 59.97 60.16 60.89 61.21 61.59 61.57 61.07 61.69 61.82 61.98 61.96
53.24 51.75 52.28 51.91 51.91 51.33 50.15 49.98 49.78 50.01 50.59 51.82 44.50 44.12 42.34 42.52 44.15 43.43 42.88 44.14 54.27 52.79 56.90 56.72 56.38 56.72 57.08 57.08 57.81 58.01 59.74 61.45 61.47 61.61 61.59 61.93 61.95 61.39 61.21 60.82 61.16 61.28 61.80
52.75 52.04 52.03 51.87 51.78 51.12 51.69 51.30 50.67 50.60 50.83 50.73 50.37 46.49 43.38 41.25 42.88 46.15 47.23 54.48 54.68 54.99 55.39 55.38 55.62 55.58 56.16 56.54 56.90 57.08 57.45 58.85 60.20 61.11 61.11 61.09 60.91 60.22 59.78 59.60 59.28 52.67 55.21
52.54 53.27 52.73 52.23 53.06 53.50 53.63 54.19 55.26 54.35 52.55 52.95 53.26 52.49 51.58 51.05 52.85 51.73 51.52 51.89 53.06 55.54 55.40 55.36 55.42 55.25 55.60 55.60 55.62 55.82 56.02 56.02 56.90 57.31 57.83 58.39 58.55 58.19 57.65 57.45 56.56 55.84 55.43
53.49 51.15 53.27 52.41 53.57 53.41 53.34 54.34 55.19 55.64 54.54 54.56 55.57 54.63 49.48 54.68 52.67 51.44 51.34 51.86 52.20 52.12 53.12 51.40 53.07 54.79 54.73 54.71 54.65 54.85 55.03 55.27 55.29 55.29 55.47 55.66 55.84 55.47 55.43 55.78 55.21 55.05 54.71
52.82 51.28 52.00 52.08 53.41 53.73 53.37 53.24 53.49 54.83 54.97 53.54 52.78 50.45 43.97 53.08 51.99 51.66 51.62 51.77 52.11 52.21 52.27 52.39 52.01 51.92 52.21 52.03 52.52 54.03 53.57 54.29 54.77 55.19 55.07 55.40 55.43 55.27 54.87 54.53 54.55 54.55 54.87
51.64 52.11 52.32 52.17 52.57 52.35 52.97 53.01 52.74 52.67 53.60 54.29 53.27 54.30 54.20 52.85 51.79 51.61 51.81 52.19 52.16 51.75 51.44 52.44 52.76 52.24 52.56 52.81 52.33 51.92 51.78 51.89 52.42 53.15 52.87 53.07 53.47 54.05 54.37 54.09 54.07 53.79 53.77
49.36 49.93 50.37 51.75 52.19 52.84 52.33 52.01 51.81 49.97 52.59 54.09 54.14 53.48 53.03 52.47 51.75 52.95 52.07 52.48 52.40 51.96 51.04 50.97 53.08 52.75 53.13 52.74 49.50 48.86 49.07 49.13 51.44 52.63 51.99 52.16 51.97 51.21 53.32 54.11 53.75 53.44 53.05
48.32 49.01 48.94 48.83 51.17 52.23 51.69 51.97 52.07 52.19 52.16 52.54 53.69 53.37 53.13 53.15 52.94 54.36 54.38 53.28 53.24 53.36 52.19 50.24 50.67 50.46 51.62 52.44 48.54 46.23 40.75 33.96 42.50 38.44 51.16 52.31 52.08 51.38 51.95 50.86 50.38 49.63 48.60
48.17 48.84 47.66 48.08 47.83 49.66 50.96 51.47 51.70 51.99 52.47 52.36 53.08 53.10 53.26 53.72 54.33 55.31 55.94 55.74 54.55 53.84 53.00 50.65 49.62 49.49 49.52 48.17 46.64 41.36 34.94 33.96 38.89 33.56 39.78 45.83 51.30 52.06 53.33 51.51 48.56 48.22 46.89